7 * 24
多渠道服务支持
COSMOS 2485(编号GLONASS)是独联体(CIS)发射的格洛纳斯-M型导航卫星,于2013年4月26日由俄罗斯联盟2-1b火箭自普列谢茨克发射场成功发射。它属于俄罗斯GLONASS全球卫星导航系统组网卫星,旨在补充系统星座,发射后系统工作卫星重回全球覆盖要求的24颗规模,完成在轨测试后投入使用,为全球用户提供高精度导航定位服务。
俄罗斯(独联体)
(CIS)
| 数据来源 | 国际轨道数据 |
| 星历时间: | 2026-09-15T08:11:07+0800 23小时前 查看轨道信息 |
| 半长轴: | 25507.945km |
| 偏心率: | 0.0023153 |
| 轨道倾角: | 65.475° |
| 近地点辐角 | 226.111° |
| 升交点赤经 | 70.593° |
| 平近点角 | 133.724° |
| 近地点: | 19070.749km |
| 远地点: | 19188.867km |
| 周期: | 675.730分钟 |
| 每日圈数: | 2.13103 |